STARLINK-4488

decayed
NORAD ID: 53534 Int'l Des: 2022-101 Owner: SPXS Country: US Constellation: starlink
LEOCIRCULAR
Gruppe

Über STARLINK-4488

Beschreibung wird geladen...

Höhenverlauf

Altitude vs Time

uPlot chart will show altitude changes over time

Zweizeiliger Elementsatz

1 53534U 22101H 25013.81578263 .05695459 12692-4 10000-3 0 9998
2 53534 53.1735 135.6870 0012558 8.5684 130.2842 16.46737672133093
Epoch: 13. Jan. 2025 • Age: 5868 hours

Aktueller Status

Position data unavailable
Startdatum 19. Aug. 2022
Alter 3 years
Verglühungsdatum 13. Jan. 2025
Typ internet

Technische Details

Klassifizierung Payload
Masse 300.00 kg
Trockenmasse 290.00 kg
Gesamtmasse 300.00 kg
Länge 0.20 m
Durchmesser 2.80 m
Spannweite 9.00 m
Form Box + pan
Hersteller SPXS
Bus-Typ Starlink
Phasenstatus Unknown Transfer Status
Besitzer/Staat SPXS/US

Große Konstellationen

Loading constellations...